Find Starlink 2314

NORAD ID: 47788 Int'l Des: 2021-018 Owner: SPXS Country: US Constellation: starlink operational
LEOCIRCULAR

当前视图

正在加载3D地球...

About Starlink 2314

Starlink 2314 (NORAD 47788) is a starlink constellation satellite (v1.0) launched Mar 11, 2021 by SPXS of US. It operates in LEO, CIRCULAR orbit with a mass of 260.00 kg.

关于 Starlink 2314

正在加载描述...

即将过境

Passes for default location (London). Set your location on the main map for personalized predictions.

高度历史

Loading altitude history...

两行轨道根数

1 47788U 21018B 26167.13066208 .00043475 00000-0 10813-2 0 9992
2 47788 53.1563 119.1948 0005017 50.4511 309.6936 15.39873537292180
Epoch: Jun 16, 2026 • Age: 11 hours

当前状态

高度 460.5 km
速度 7.64 km/s
星下点 -40.22°S, 33.93°W
发射日期 Mar 11, 2021
运行时间 5.2 years
类型 internet

技术详情

分类 Payload
质量 260.00 kg
干质量 248.00 kg
总质量 260.00 kg
长度 0.20 m
直径 2.80 m
跨度 9.00 m
形状 Box + pan
制造商 SPXS
平台类型 Starlink
阶段状态 In Orbit
所有者/国家 SPXS/US

Most Searched